User: anonymous   Login
Location: Shell Point
(30.0571°N, 84.2896°W)
Time: 10:14:56
(UTC-05:00)
Language:

Meteor 2-19 Rocket - Orbit

View from above orbital plane
View from above orbital plane
View from above satellite
View from above satellite

Ground track
Ground track

The orbit data is extracted from the following two-line orbital elements,

1 20671U 90057B   14354.21575557  .00000018  00000-0  24287-5 0  1686
2 20671 082.5462 015.4229 0014811 358.1978 072.9469 13.84582724237142
Epoch (UTC): 20 December 2014 05:10:41
Eccentricity: 0.0014811
inclination: 82.5462°
perigee height: 937 km
apogee height: 958 km
right ascension of ascending node: 15.4229°
argument of perigee: 358.1978°
revolutions per day: 13.84582724
mean anomaly at epoch: 72.9469°
orbit number at epoch: 23714

The dashed part of the orbit path shows where the satellite is in the earth's shadow,  

DLR